User: anonymous   Login
Location: Unspecified
(0.0000°N, 0.0000°E)
Time: 10:27:30
(UTC+02:00)
Language:

Meteor 1-10 Rocket - Orbit

View from above orbital plane
View from above orbital plane
View from above satellite
View from above satellite

Ground track
Ground track

The orbit data is extracted from the following two-line orbital elements,

1 05732U 71120B   14296.50459517  .00000071  00000-0  35797-4 0  4040
2 05732 081.2513 337.8463 0050624 243.0053 223.5682 14.05838144202962
Epoch (UTC): 23 October 2014 12:06:37
Eccentricity: 0.0050624
inclination: 81.2513°
perigee height: 837 km
apogee height: 910 km
right ascension of ascending node: 337.8463°
argument of perigee: 243.0053°
revolutions per day: 14.05838144
mean anomaly at epoch: 223.5682°
orbit number at epoch: 20296

The dashed part of the orbit path shows where the satellite is in the earth's shadow,  

DLR